Погода в Рассыльной

Россия / Орловская область     52°42′44″N   35°49′05″E
темп.,
°C
ветер,
м/с
пор.,
м/с
влажн.,
%
обл.,
%
осадки,
мм/ч
давл.,
гПа
погр.,
м
13 мая, чт
чт1300:00+6в379540 0.0 1016144
03:00+6вюв499666 0.0 1015200
06:00+8вюв41294100 0.3 1014481
09:00+10юв61092100 2.6 1013877
12:00+13ю697022 0.8 10131419
15:00+14ю686784 1.1 10131495
18:00+14ююз477243 0.2 1013742
21:00+9ю2285100 0.2 101415
14 мая, пт
пт1400:00+8юв3389100 0.0 101527
03:00+7юв359099 0.0 101570
06:00+9вюв368749 0.0 1015138
09:00+14вюв4884100 0.0 1014349
12:00+19вюв7975100 0.9 1012958
15:00+20ююв71177100 5.2 10101197
18:00+19ююв5118493 1.1 1009589
21:00+16ю51492100 3.1 1009342
15 мая, сб
сб1500:00+14ю34945 1.3 100961
03:00+12ююв2293100 1.3 100915
06:00+13ююв3492100 0.0 100983
09:00+17ююз578277 0.0 1009461
12:00+19ююз79685 0.4 10101389
15:00+18юз8117550 2.5 10101454
18:00+17юз6108044 0.4 10111013
21:00+13ююз38935 0.4 1012157
16 мая, вс
вс1600:00+11ююз410944 0.0 1012206
03:00+10ююз37954 0.0 1013139
06:00+10ююз38955 0.0 1014203
09:00+15юз46795 0.0 1015599
12:00+19юз576631 0.0 10151402
15:00+20юз45600 0.0 10141428
18:00+20ююз23677 0.0 10141278
21:00+15с117874 0.0 101411
17 мая, пн
пн1700:00+13в338639 0.0 101427
03:00+12всв359124 0.0 101476
06:00+13всв41191100 0.0 1014225
09:00+19в61176100 0.0 1012505
12:00+23вюв686629 0.0 1011831
15:00+25вюв610635 0.0 10091257
18:00+23вюв6127020 0.0 1009555
21:00+19вюв6157999 0.0 1008361